This demonstration page uses our WeatherBlox Daily Observations layout. Learn more.

Left ArrowRight Arrow

Hourly Observations for November 27, 2022

Temp ( °F °C ) Dew Point ( °F °C ) Humidity (%) Winds ( mph kmh ) Pressure ( in mb ) Visibility ( mi km ) Precip ( " mm )
12:55 am 00:55 Cloudy 42 5.8 32 0.1 67 67 NNW 17 28 29.74 1007 10 16 0.00 0.00
1:55 am 01:55 Cloudy 41 5.1 31 -0.3 68 68 N 15 24 29.75 1007 10 16 0.00 0.00
2:55 am 02:55 Mostly Cloudy 40 4.4 30 -1.2 67 67 NNW 14 22 29.77 1008 10 16 0.00 0.00
3:55 am 03:55 Cloudy 38 3.5 29 -1.7 69 69 NW 15 24 29.77 1008 10 16 0.00 0.00
4:55 am 04:55 Cloudy 37 2.5 28 -2.2 71 71 NW 14 22 29.80 1009 10 16 0.00 0.00
5:55 am 05:55 Clear 35 1.8 28 -2.3 74 74 NW 15 24 29.82 1010 10 16 0.00 0.00
6:55 am 06:55 Clear 34 1.3 27 -2.6 75 75 NW 12 19 29.84 1011 10 16 0.00 0.00
7:55 am 07:55 Sunny 34 1.2 26 -3.1 73 73 NW 14 22 29.86 1011 10 16 0.00 0.00
8:55 am 08:55 Sunny 35 1.9 26 -3.4 68 68 NW 14 22 29.88 1012 10 16 0.00 0.00
9:55 am 09:55 Sunny 38 3.3 26 -3.3 62 62 NW 12 19 29.91 1013 10 16 0.00 0.00
10:55 am 10:55 Sunny 41 4.9 26 -3.6 54 54 NW 14 22 29.93 1014 10 16 0.00 0.00
11:55 am 11:55 Mostly Cloudy 42 5.4 25 -3.9 51 51 NW 13 20 29.93 1014 10 16 0.00 0.00
12:55 pm 12:55 Sunny 42 5.7 23 -5 46 46 NW 12 19 29.92 1013 10 16 0.00 0.00
1:55 pm 13:55 Mostly Sunny 45 7.3 22 -5.8 39 39 WNW 9 15 29.91 1013 10 16 0.00 0.00
2:55 pm 14:55 Partly Cloudy 44 6.7 21 -6.3 39 39 WNW 10 17 29.90 1013 10 16 0.00 0.00
3:55 pm 15:55 Mostly Cloudy 43 6.1 21 -5.9 42 42 WNW 8 13 29.91 1013 10 16 0.00 0.00
4:55 pm 16:55 Sunny 40 4.6 23 -5.2 49 49 NW 3 6 29.92 1013 10 16 0.00 0.00
5:55 pm 17:55 Clear 38 3.3 20 -6.9 47 47 N 3 6 29.94 1014 10 16 0.00 0.00
6:55 pm 18:55 Clear 34 1.2 20 -6.6 56 56 Calm 29.94 1014 10 16 0.00 0.00
7:55 pm 19:55 Clear 31 -0.7 21 -6.3 66 66 Calm 29.94 1014 10 16 0.00 0.00
8:55 pm 20:55 Clear 30 -0.9 20 -6.7 65 65 Calm 29.94 1014 10 16 0.00 0.00
9:55 pm 21:55 Clear 26 -3.4 19 -7.4 74 74 Calm 29.94 1014 10 16 0.00 0.00
10:55 pm 22:55 Clear 26 -3.1 19 -7.1 74 74 Calm 29.94 1014 10 16 0.00 0.00
11:55 pm 23:55 Clear 25 -3.8 20 -6.6 81 81 Calm 29.93 1014 10 16 0.00 0.00

Powered by AerisWeather